DW6252 Weather Reports


Display with metric or nautical units.
time (UTC)temp
F
wind
direction
speed
MPH
gust
MPH
rain 1hr
in
rain 24hr
in
rain mn
in
humidity
%
barometer
mb
20260906164502 68 360 8.0 10.0 0.00 0.00 0.00 90 1019.6
20260906163102 68 360 6.0 8.0 0.00 0.00 0.00 90 1019.7
20260906161556 68 360 4.0 6.0 0.00 0.00 0.00 90 1019.6
20260906160057 68 360 4.0 6.0 0.00 0.00 0.00 90 1019.6
20260906154554 67 360 0.0 4.0 0.00 0.00 0.00 90 1019.5
20260906153054 67 360 0.0 0.0 0.00 0.00 0.00 91 1019.5
20260906151523 67 360 0.0 0.0 0.00 0.00 0.00 90 1019.6
20260906150031 68 42 0.0 0.0 0.00 0.00 0.00 89 1019.6
20260906144521 68 42 0.0 0.0 0.00 0.00 0.00 87 1019.7
20260906143020 68 42 0.0 0.0 0.00 0.00 0.00 89 1019.8
20260906141520 68 15 0.0 0.0 0.00 0.00 0.00 87 1019.9
20260906140038 69 355 0.0 0.0 0.00 0.00 0.00 86 1020.0
20260906134517 68 355 0.0 0.0 0.00 0.00 0.00 88 1020.0
20260906133016 68 355 0.0 0.0 0.00 0.00 0.00 88 1020.0
20260906131515 67 355 0.0 0.0 0.00 0.00 0.00 92 1019.8
20260906130015 65 355 0.0 0.0 0.00 0.00 0.00 94 1019.8
20260906124545 64 355 0.0 0.0 0.00 0.00 0.00 94 1019.8
20260906123045 64 355 0.0 0.0 0.00 0.00 0.00 94 1019.7
20260906121539 63 355 0.0 0.0 0.00 0.00 0.00 94 1019.5
20260906120045 62 355 0.0 0.0 0.00 0.00 0.00 95 1019.5
20260906114536 62 355 0.0 0.0 0.00 0.00 0.00 95 1019.1
20260906113040 61 355 0.0 0.0 0.00 0.00 0.00 95 1019.1
20260906111534 61 355 0.0 0.0 0.00 0.00 0.00 94 1018.9
20260906110031 61 355 0.0 0.0 0.00 0.00 0.00 94 1018.6
20260906104534 61 355 0.0 0.0 0.00 0.00 0.00 94 1018.6
20260906103030 61 355 0.0 0.0 0.00 0.00 0.00 94 1018.5
20260906101559 61 355 0.0 0.0 0.00 0.00 0.00 94 1018.5
20260906100059 61 355 0.0 0.0 0.00 0.00 0.00 93 1018.2
20260906094607 61 355 0.0 0.0 0.00 0.00 0.00 93 1018.2
20260906093104 61 355 0.0 0.0 0.00 0.00 0.00 93 1018.2
20260906091554 61 355 0.0 0.0 0.00 0.00 0.00 93 1018.6
20260906090134 62 355 0.0 0.0 0.00 0.00 0.00 93 1018.6
20260906084555 62 355 0.0 0.0 0.00 0.00 0.00 93 1018.5
20260906083051 62 355 0.0 0.0 0.00 0.00 0.00 93 1018.4
20260906081550 62 355 0.0 0.0 0.00 0.00 0.00 92 1018.6
20260906074532 62 355 0.0 0.0 0.00 0.01 0.00 91 1018.4
20260906073023 62 355 0.0 0.0 0.00 0.01 0.00 91 1018.5
20260906071513 63 355 0.0 0.0 0.00 0.01 0.00 91 1018.5
20260906070012 63 355 0.0 0.0 0.00 0.02 0.00 90 1018.5
20260906064510 63 355 0.0 0.0 0.00 0.02 0.00 90 1018.7
20260906063009 64 355 0.0 0.0 0.00 0.02 0.00 89 1018.7
20260906061505 65 355 0.0 0.0 0.00 0.02 0.00 88 1018.7
20260906060007 65 355 0.0 0.0 0.00 0.02 0.00 87 1018.5
20260906054503 66 355 0.0 0.0 0.00 0.02 0.00 87 1018.5
20260906053003 66 355 0.0 0.0 0.00 0.02 0.00 86 1018.3
20260906051537 66 355 0.0 0.0 0.00 0.02 0.00 86 1018.5
20260906050032 66 355 0.0 0.0 0.00 0.02 0.00 86 1018.4
20260906044530 66 355 0.0 0.0 0.00 0.02 0.00 86 1018.4
20260906043031 66 355 0.0 6.0 0.00 0.02 0.00 86 1018.3
20260906041542 66 360 3.0 8.0 0.00 0.02 0.00 86 1018.2
20260906040028 66 11 1.0 6.0 0.00 0.02 0.00 85 1018.1
20260906034534 66 26 4.0 10.0 0.00 0.02 0.00 84 1017.8
20260906033025 66 17 3.0 10.0 0.00 0.02 0.00 84 1017.8
20260906031524 66 20 6.0 11.0 0.00 0.02 0.00 84 1018.2
20260906030032 66 23 3.0 8.0 0.00 0.02 0.00 85 1017.9
20260906024523 66 21 0.0 0.0 0.00 0.02 0.00 85 1017.9
20260906023104 66 11 0.0 0.0 0.00 0.02 0.00 86 1018.0
20260906021555 65 11 0.0 0.0 0.00 0.02 0.00 86 1017.8
20260906020051 65 29 0.0 0.0 0.00 0.02 0.00 87 1017.7
20260906014552 65 30 0.0 0.0 0.00 0.02 0.00 87 1017.7
20260906013049 65 31 0.0 0.0 0.00 0.02 0.00 87 1017.7
20260906011558 65 360 0.0 0.0 0.00 0.02 0.00 87 1017.4
20260906010113 65 60 0.0 0.0 0.00 0.02 0.00 87 1017.6
20260906004547 66 60 0.0 0.0 0.00 0.02 0.00 86 1017.5
20260906003045 67 60 0.0 0.0 0.00 0.02 0.00 85 1017.5
20260906001557 67 60 0.0 4.0 0.00 0.02 0.00 85 1017.5
20260906000035 68 360 1.0 6.0 0.00 0.02 0.00 84 1017.7
20260905234535 68 360 2.0 6.0 0.00 0.02 0.00 83 1017.5
20260905233035 69 360 0.0 6.0 0.00 0.02 0.00 83 1017.4
20260905231540 69 360 3.0 11.0 0.00 0.02 0.00 85 1017.7
20260905230002 70 360 4.0 9.0 0.00 0.02 0.00 81 1017.7
20260905224503 70 360 6.0 9.0 0.00 0.02 0.00 81 1017.7
20260905223057 70 80 3.0 10.0 0.00 0.02 0.00 80 1017.7
20260905221557 69 83 11.0 13.0 0.00 0.02 0.00 79 1017.6
20260905220055 71 360 3.0 11.0 0.00 0.02 0.00 79 1017.7
20260905214555 71 360 7.0 11.0 0.00 0.02 0.00 76 1017.8
20260905213056 71 342 5.0 10.0 0.00 0.02 0.00 73 1017.8
20260905211551 71 360 6.0 11.0 0.00 0.02 0.00 73 1017.7
20260905210050 70 360 6.0 13.0 0.00 0.02 0.00 76 1018.1
20260905204546 69 360 10.0 12.0 0.00 0.02 0.00 83 1018.1
20260905203053 68 97 9.0 13.0 0.00 0.02 0.00 88 1018.0
20260905201555 68 92 9.0 11.0 0.00 0.02 0.00 89 1018.1
20260905200040 70 360 9.0 13.0 0.00 0.02 0.00 85 1018.1
20260905194539 71 360 12.0 14.0 0.00 0.02 0.00 77 1018.3
20260905193008 71 360 9.0 11.0 0.00 0.02 0.00 74 1018.3
20260905191503 69 360 8.0 11.0 0.00 0.02 0.00 80 1018.3
20260905184611 68 360 7.0 10.0 0.00 0.02 0.00 88 1018.1
20260905183111 68 86 7.0 8.0 0.00 0.02 0.00 89 1018.5
20260905181556 68 85 8.0 9.0 0.00 0.02 0.00 88 1018.5
20260905180056 68 102 7.0 11.0 0.00 0.02 0.00 88 1018.5
20260905174552 69 360 8.0 10.0 0.00 0.02 0.00 88 1018.6
20260905173050 69 360 6.0 8.0 0.00 0.02 0.00 86 1018.6
20260905171552 68 360 9.0 10.0 0.00 0.02 0.00 87 1018.4
20260905170057 68 360 8.0 11.0 0.00 0.02 0.00 87 1018.7